| time (UTC) | temp C | wind direction | speed KPH | gust KPH | rain 1hr cm | rain 24hr cm | rain mn cm | humidity % | barometer mb |
| 20260508145518 | 15 | 220 | 0.0 | 0.0 | 0.00 | 0.43 | 0.00 | 78 | 1015.5 |
| 20260508145021 | 15 | 219 | 0.0 | 0.0 | 0.00 | 0.43 | 0.00 | 81 | 1015.5 |
| 20260508144516 | 15 | 219 | 0.0 | 0.0 | 0.00 | 0.43 | 0.00 | 83 | 1015.5 |
| 20260508144015 | 14 | 219 | 0.0 | 0.0 | 0.00 | 0.43 | 0.00 | 82 | 1015.5 |
| 20260508143516 | 14 | 254 | 0.0 | 0.0 | 0.00 | 0.43 | 0.00 | 86 | 1015.6 |
| 20260508143012 | 14 | 191 | 0.0 | 0.0 | 0.00 | 0.43 | 0.00 | 90 | 1015.6 |
| 20260508142512 | 13 | 201 | 0.0 | 0.0 | 0.00 | 0.43 | 0.00 | 91 | 1015.5 |
| 20260508142011 | 13 | 200 | 0.0 | 0.0 | 0.00 | 0.43 | 0.00 | 91 | 1015.6 |
| 20260508141513 | 13 | 207 | 0.0 | 0.0 | 0.00 | 0.43 | 0.00 | 92 | 1015.6 |
| 20260508141015 | 13 | 207 | 0.0 | 0.0 | 0.00 | 0.43 | 0.00 | 92 | 1015.7 |
| 20260508140511 | 13 | 210 | 0.0 | 0.0 | 0.00 | 0.43 | 0.00 | 92 | 1015.7 |
| 20260508140010 | 13 | 192 | 0.0 | 0.0 | 0.00 | 0.43 | 0.00 | 92 | 1015.7 |
| 20260508135512 | 12 | 191 | 0.0 | 0.0 | 0.00 | 0.46 | 0.00 | 92 | 1015.7 |
| 20260508135008 | 12 | 194 | 0.0 | 0.0 | 0.00 | 0.46 | 0.00 | 92 | 1015.6 |
| 20260508134509 | 12 | 194 | 0.0 | 0.0 | 0.00 | 0.46 | 0.00 | 92 | 1015.6 |
| 20260508134008 | 12 | 213 | 0.0 | 0.0 | 0.00 | 0.46 | 0.00 | 92 | 1015.6 |
| 20260508133508 | 12 | 213 | 0.0 | 0.0 | 0.00 | 0.46 | 0.00 | 92 | 1015.6 |
| 20260508133010 | 12 | 213 | 0.0 | 0.0 | 0.00 | 0.46 | 0.00 | 92 | 1015.5 |
| 20260508132507 | 12 | 213 | 0.0 | 0.0 | 0.00 | 0.46 | 0.00 | 92 | 1015.5 |
| 20260508132012 | 11 | 213 | 0.0 | 0.0 | 0.00 | 0.46 | 0.00 | 92 | 1015.6 |
| 20260508131507 | 11 | 213 | 0.0 | 0.0 | 0.00 | 0.46 | 0.00 | 92 | 1015.5 |
| 20260508131006 | 11 | 213 | 0.0 | 0.0 | 0.00 | 0.46 | 0.00 | 92 | 1015.5 |
| 20260508130506 | 11 | 227 | 0.0 | 0.0 | 0.00 | 0.46 | 0.00 | 92 | 1015.4 |
| 20260508130005 | 11 | 227 | 0.0 | 0.0 | 0.00 | 1.40 | 0.00 | 92 | 1015.4 |
| 20260508125505 | 11 | 227 | 0.0 | 0.0 | 0.00 | 1.40 | 0.00 | 92 | 1015.3 |
| 20260508125008 | 11 | 227 | 0.0 | 0.0 | 0.00 | 1.40 | 0.00 | 92 | 1015.3 |
| 20260508124504 | 11 | 234 | 0.0 | 0.0 | 0.00 | 1.40 | 0.00 | 92 | 1015.1 |
| 20260508124006 | 11 | 234 | 0.0 | 0.0 | 0.00 | 1.40 | 0.00 | 92 | 1015.1 |
| 20260508123502 | 10 | 234 | 0.0 | 0.0 | 0.00 | 1.40 | 0.00 | 92 | 1015.0 |
| 20260508123004 | 10 | 234 | 0.0 | 0.0 | 0.00 | 1.40 | 0.00 | 92 | 1015.0 |
| 20260508122503 | 10 | 234 | 0.0 | 0.0 | 0.00 | 1.40 | 0.00 | 92 | 1014.8 |
| 20260508122001 | 10 | 234 | 0.0 | 0.0 | 0.00 | 1.40 | 0.00 | 91 | 1014.9 |
| 20260508121602 | 10 | 234 | 0.0 | 0.0 | 0.00 | 1.40 | 0.00 | 91 | 1014.8 |
| 20260508121059 | 10 | 234 | 0.0 | 0.0 | 0.00 | 1.40 | 0.00 | 91 | 1014.7 |
| 20260508120602 | 10 | 234 | 0.0 | 0.0 | 0.00 | 1.40 | 0.00 | 91 | 1014.8 |
| 20260508115559 | 10 | 234 | 0.0 | 0.0 | 0.00 | 1.68 | 0.00 | 91 | 1014.7 |
| 20260508115058 | 10 | 234 | 0.0 | 0.0 | 0.00 | 1.68 | 0.00 | 91 | 1014.7 |
| 20260508114606 | 10 | 234 | 0.0 | 0.0 | 0.00 | 1.68 | 0.00 | 91 | 1014.4 |
| 20260508114056 | 10 | 234 | 0.0 | 0.0 | 0.00 | 1.68 | 0.00 | 91 | 1014.4 |
| 20260508113555 | 10 | 234 | 0.0 | 0.0 | 0.00 | 1.68 | 0.00 | 91 | 1014.2 |
| 20260508113105 | 10 | 234 | 0.0 | 0.0 | 0.00 | 1.68 | 0.00 | 91 | 1014.3 |
| 20260508112556 | 10 | 234 | 0.0 | 0.0 | 0.00 | 1.68 | 0.00 | 91 | 1014.1 |
| 20260508112053 | 10 | 234 | 0.0 | 0.0 | 0.00 | 1.68 | 0.00 | 91 | 1014.1 |
| 20260508111558 | 10 | 234 | 0.0 | 0.0 | 0.00 | 1.68 | 0.00 | 91 | 1014.0 |
| 20260508111051 | 10 | 234 | 0.0 | 0.0 | 0.00 | 1.68 | 0.00 | 91 | 1013.9 |
| 20260508110551 | 10 | 234 | 0.0 | 0.0 | 0.00 | 1.68 | 0.00 | 91 | 1013.8 |
| 20260508110050 | 10 | 234 | 0.0 | 0.0 | 0.00 | 1.68 | 0.00 | 91 | 1013.7 |
| 20260508105550 | 10 | 234 | 0.0 | 0.0 | 0.00 | 1.70 | 0.00 | 91 | 1013.6 |
| 20260508105050 | 10 | 234 | 0.0 | 0.0 | 0.00 | 1.70 | 0.00 | 91 | 1013.6 |
| 20260508104552 | 10 | 234 | 0.0 | 0.0 | 0.00 | 1.70 | 0.00 | 91 | 1013.5 |
| 20260508104048 | 10 | 234 | 0.0 | 0.0 | 0.00 | 1.70 | 0.00 | 91 | 1013.4 |
| 20260508103546 | 10 | 234 | 0.0 | 0.0 | 0.00 | 1.70 | 0.00 | 91 | 1013.2 |
| 20260508103046 | 10 | 234 | 0.0 | 0.0 | 0.00 | 1.70 | 0.00 | 91 | 1013.0 |
| 20260508102544 | 10 | 234 | 0.0 | 0.0 | 0.00 | 1.70 | 0.00 | 91 | 1012.9 |
| 20260508102044 | 10 | 234 | 0.0 | 0.0 | 0.00 | 1.70 | 0.00 | 91 | 1012.9 |
| 20260508101547 | 10 | 234 | 0.0 | 0.0 | 0.00 | 1.70 | 0.00 | 91 | 1012.9 |
| 20260508101042 | 10 | 234 | 0.0 | 0.0 | 0.00 | 1.70 | 0.00 | 91 | 1012.9 |
| 20260508100543 | 10 | 234 | 0.0 | 0.0 | 0.00 | 1.70 | 0.00 | 91 | 1012.8 |
| 20260508100040 | 10 | 234 | 0.0 | 0.0 | 0.00 | 1.70 | 0.00 | 91 | 1012.8 |
| 20260508095539 | 10 | 234 | 0.0 | 0.0 | 0.00 | 1.78 | 0.00 | 91 | 1012.8 |
| 20260508095039 | 10 | 234 | 0.0 | 0.0 | 0.00 | 1.78 | 0.00 | 91 | 1012.7 |
| 20260508094539 | 10 | 234 | 0.0 | 0.0 | 0.00 | 1.78 | 0.00 | 91 | 1012.6 |
| 20260508094038 | 11 | 234 | 0.0 | 0.0 | 0.00 | 1.78 | 0.00 | 91 | 1012.5 |
| 20260508093538 | 11 | 234 | 0.0 | 0.0 | 0.00 | 1.78 | 0.00 | 91 | 1012.7 |
| 20260508093038 | 11 | 234 | 0.0 | 0.0 | 0.00 | 1.78 | 0.00 | 91 | 1012.6 |
| 20260508092536 | 11 | 234 | 0.0 | 0.0 | 0.00 | 1.78 | 0.00 | 91 | 1012.6 |
| 20260508092036 | 11 | 234 | 0.0 | 0.0 | 0.00 | 1.78 | 0.00 | 91 | 1012.5 |
| 20260508091602 | 11 | 234 | 0.0 | 0.0 | 0.00 | 1.78 | 0.00 | 91 | 1012.4 |
| 20260508091035 | 11 | 234 | 0.0 | 0.0 | 0.00 | 1.78 | 0.00 | 91 | 1012.4 |
| 20260508090538 | 11 | 234 | 0.0 | 0.0 | 0.00 | 1.78 | 0.00 | 91 | 1012.4 |
| 20260508090033 | 11 | 234 | 0.0 | 0.0 | 0.00 | 1.78 | 0.00 | 91 | 1012.3 |
| 20260508085537 | 11 | 234 | 0.0 | 0.0 | 0.00 | 1.91 | 0.00 | 91 | 1012.4 |
| 20260508085035 | 11 | 234 | 0.0 | 0.0 | 0.00 | 1.91 | 0.00 | 91 | 1012.4 |
| 20260508084533 | 11 | 234 | 0.0 | 0.0 | 0.00 | 1.91 | 0.00 | 91 | 1012.3 |
| 20260508084036 | 11 | 234 | 0.0 | 0.0 | 0.00 | 1.91 | 0.00 | 91 | 1012.2 |
| 20260508083531 | 11 | 234 | 0.0 | 0.0 | 0.00 | 1.91 | 0.00 | 91 | 1012.3 |
| 20260508083035 | 11 | 234 | 0.0 | 0.0 | 0.00 | 1.91 | 0.00 | 91 | 1012.0 |
| 20260508082529 | 11 | 234 | 0.0 | 0.0 | 0.00 | 1.91 | 0.00 | 91 | 1012.1 |
| 20260508082029 | 11 | 234 | 0.0 | 0.0 | 0.00 | 1.91 | 0.00 | 91 | 1012.2 |
| 20260508081529 | 11 | 234 | 0.0 | 0.0 | 0.00 | 1.91 | 0.00 | 91 | 1012.1 |
| 20260508081027 | 11 | 234 | 0.0 | 0.0 | 0.00 | 1.91 | 0.00 | 91 | 1012.0 |
| 20260508080526 | 11 | 234 | 0.0 | 0.0 | 0.00 | 1.91 | 0.00 | 91 | 1012.0 |
| 20260508080026 | 11 | 234 | 0.0 | 0.0 | 0.00 | 1.91 | 0.00 | 91 | 1011.8 |
| 20260508075526 | 11 | 234 | 0.0 | 0.0 | 0.00 | 2.34 | 0.00 | 91 | 1011.7 |
| 20260508075026 | 11 | 234 | 0.0 | 0.0 | 0.00 | 2.34 | 0.00 | 91 | 1011.7 |
| 20260508074525 | 12 | 234 | 0.0 | 0.0 | 0.00 | 2.34 | 0.00 | 91 | 1011.8 |
| 20260508074025 | 12 | 234 | 0.0 | 0.0 | 0.00 | 2.34 | 0.00 | 91 | 1011.8 |
| 20260508073524 | 12 | 234 | 0.0 | 0.0 | 0.00 | 2.34 | 0.00 | 91 | 1011.7 |
| 20260508073025 | 12 | 234 | 0.0 | 0.0 | 0.00 | 2.34 | 0.00 | 91 | 1011.7 |
| 20260508072523 | 12 | 234 | 0.0 | 0.0 | 0.00 | 2.34 | 0.00 | 91 | 1011.5 |
| 20260508072023 | 12 | 234 | 0.0 | 0.0 | 0.00 | 2.34 | 0.00 | 91 | 1011.5 |
| 20260508071524 | 12 | 234 | 0.0 | 0.0 | 0.00 | 2.34 | 0.00 | 91 | 1011.5 |
| 20260508071025 | 12 | 234 | 0.0 | 0.0 | 0.00 | 2.34 | 0.00 | 91 | 1011.5 |
| 20260508070525 | 12 | 234 | 0.0 | 0.0 | 0.00 | 2.34 | 0.00 | 91 | 1011.4 |
| 20260508070021 | 12 | 234 | 0.0 | 0.0 | 0.00 | 2.34 | 0.00 | 91 | 1011.5 |
| 20260508065519 | 12 | 234 | 0.0 | 0.0 | 0.00 | 3.63 | 0.00 | 91 | 1011.4 |
| 20260508065019 | 12 | 234 | 0.0 | 0.0 | 0.00 | 3.63 | 0.00 | 91 | 1011.4 |
| 20260508064529 | 12 | 234 | 0.0 | 0.0 | 0.00 | 3.63 | 0.00 | 90 | 1011.4 |
| 20260508064020 | 12 | 234 | 0.0 | 0.0 | 0.00 | 3.63 | 0.00 | 91 | 1011.3 |
| 20260508063521 | 12 | 234 | 0.0 | 0.0 | 0.00 | 3.63 | 0.00 | 91 | 1011.4 |
| 20260508063018 | 12 | 234 | 0.0 | 0.0 | 0.00 | 3.63 | 0.00 | 91 | 1011.4 |
| 20260508062521 | 12 | 234 | 0.0 | 0.0 | 0.00 | 3.63 | 0.00 | 91 | 1011.5 |
| 20260508062017 | 12 | 234 | 0.0 | 0.0 | 0.00 | 3.63 | 0.00 | 91 | 1011.6 |
| 20260508061516 | 12 | 234 | 0.0 | 0.0 | 0.00 | 3.63 | 0.00 | 91 | 1011.7 |
| 20260508061016 | 13 | 234 | 0.0 | 0.0 | 0.00 | 3.63 | 0.00 | 91 | 1011.6 |
| 20260508060518 | 13 | 234 | 0.0 | 0.0 | 0.00 | 3.63 | 0.00 | 91 | 1011.5 |
| 20260508060014 | 13 | 234 | 0.0 | 0.0 | 0.00 | 3.63 | 0.00 | 91 | 1011.6 |
| 20260508055514 | 13 | 234 | 0.0 | 0.0 | 0.00 | 3.81 | 0.00 | 91 | 1011.7 |
| 20260508055014 | 13 | 234 | 0.0 | 0.0 | 0.00 | 3.81 | 0.00 | 91 | 1011.7 |
| 20260508054513 | 13 | 234 | 0.0 | 0.0 | 0.00 | 3.81 | 0.00 | 91 | 1011.7 |
| 20260508054012 | 13 | 234 | 0.0 | 0.0 | 0.00 | 3.81 | 0.00 | 91 | 1011.5 |
| 20260508053514 | 13 | 234 | 0.0 | 0.0 | 0.00 | 3.81 | 0.00 | 91 | 1011.5 |
| 20260508053012 | 13 | 234 | 0.0 | 0.0 | 0.00 | 3.81 | 0.00 | 91 | 1011.3 |
| 20260508052512 | 13 | 234 | 0.0 | 0.0 | 0.00 | 3.81 | 0.00 | 91 | 1011.4 |
| 20260508052013 | 13 | 234 | 0.0 | 0.0 | 0.00 | 3.81 | 0.00 | 91 | 1011.5 |
| 20260508051511 | 13 | 234 | 0.0 | 0.0 | 0.00 | 3.81 | 0.00 | 91 | 1011.4 |
| 20260508051009 | 13 | 234 | 0.0 | 0.0 | 0.00 | 3.81 | 0.00 | 90 | 1011.3 |
| 20260508050509 | 13 | 234 | 0.0 | 0.0 | 0.00 | 3.81 | 0.00 | 90 | 1011.3 |
| 20260508050010 | 13 | 234 | 0.0 | 0.0 | 0.00 | 3.81 | 0.00 | 90 | 1011.3 |
| 20260508045508 | 13 | 234 | 0.0 | 0.0 | 0.00 | 3.81 | 0.00 | 91 | 1011.3 |
| 20260508045109 | 13 | 234 | 0.0 | 0.0 | 0.00 | 3.81 | 0.00 | 91 | 1011.3 |
| 20260508044507 | 13 | 234 | 0.0 | 0.0 | 0.00 | 3.81 | 0.00 | 91 | 1011.3 |
| 20260508044006 | 13 | 234 | 0.0 | 0.0 | 0.00 | 3.81 | 0.00 | 90 | 1011.3 |
| 20260508043505 | 13 | 234 | 0.0 | 0.0 | 0.00 | 3.81 | 0.00 | 90 | 1011.0 |
| 20260508043006 | 13 | 234 | 0.0 | 0.0 | 0.00 | 3.81 | 0.00 | 90 | 1011.0 |
| 20260508042505 | 13 | 234 | 0.0 | 0.0 | 0.00 | 3.81 | 0.00 | 90 | 1011.1 |
| 20260508042008 | 13 | 234 | 0.0 | 0.0 | 0.00 | 3.81 | 0.00 | 90 | 1011.1 |
| 20260508041508 | 13 | 234 | 0.0 | 0.0 | 0.00 | 3.81 | 0.00 | 90 | 1011.0 |
| 20260508041003 | 13 | 234 | 0.0 | 0.0 | 0.00 | 3.81 | 0.00 | 90 | 1011.0 |
| 20260508040502 | 13 | 234 | 0.0 | 0.0 | 0.00 | 3.81 | 0.00 | 90 | 1010.8 |
| 20260508040002 | 13 | 234 | 0.0 | 0.0 | 0.00 | 3.91 | 3.81 | 90 | 1010.8 |
| 20260508035502 | 13 | 234 | 0.0 | 0.0 | 0.00 | 3.91 | 3.81 | 90 | 1010.9 |
| 20260508035004 | 13 | 234 | 0.0 | 0.0 | 0.00 | 3.91 | 3.81 | 90 | 1010.9 |
| 20260508034502 | 13 | 234 | 0.0 | 0.0 | 0.00 | 3.91 | 3.81 | 90 | 1010.8 |
| 20260508034002 | 13 | 234 | 0.0 | 0.0 | 0.00 | 3.91 | 3.81 | 90 | 1010.7 |
| 20260508033501 | 13 | 234 | 0.0 | 0.0 | 0.00 | 3.91 | 3.81 | 90 | 1010.8 |
| 20260508033004 | 13 | 234 | 0.0 | 0.0 | 0.00 | 3.91 | 3.81 | 90 | 1010.8 |
| 20260508032502 | 13 | 234 | 0.0 | 0.0 | 0.00 | 3.91 | 3.81 | 90 | 1010.8 |
| 20260508032002 | 13 | 234 | 0.0 | 0.0 | 0.00 | 3.91 | 3.81 | 90 | 1011.0 |
| 20260508031605 | 13 | 234 | 0.0 | 0.0 | 0.00 | 3.91 | 3.81 | 90 | 1010.8 |
| 20260508031059 | 14 | 234 | 0.0 | 0.0 | 0.00 | 3.91 | 3.81 | 90 | 1010.6 |
| 20260508030559 | 14 | 234 | 0.0 | 0.0 | 0.00 | 3.91 | 3.81 | 90 | 1010.8 |
| 20260508030111 | 14 | 234 | 0.0 | 0.0 | 0.00 | 3.91 | 3.81 | 90 | 1010.7 |
| 20260508025558 | 14 | 234 | 0.0 | 0.0 | 0.00 | 4.72 | 3.81 | 90 | 1010.7 |
| 20260508025057 | 14 | 234 | 0.0 | 0.0 | 0.00 | 4.72 | 3.81 | 90 | 1010.5 |
| 20260508024602 | 14 | 234 | 0.0 | 0.0 | 0.00 | 4.72 | 3.81 | 90 | 1010.6 |
| 20260508024056 | 14 | 234 | 0.0 | 0.0 | 0.00 | 4.72 | 3.81 | 90 | 1010.4 |
| 20260508023556 | 14 | 234 | 0.0 | 0.0 | 0.00 | 4.72 | 3.81 | 90 | 1010.4 |
| 20260508023056 | 14 | 234 | 0.0 | 0.0 | 0.00 | 4.72 | 3.81 | 90 | 1010.5 |
| 20260508022554 | 14 | 234 | 0.0 | 0.0 | 0.00 | 4.72 | 3.81 | 90 | 1010.4 |
| 20260508022054 | 14 | 234 | 0.0 | 0.0 | 0.00 | 4.72 | 3.81 | 90 | 1010.4 |
| 20260508021554 | 14 | 234 | 0.0 | 0.0 | 0.00 | 4.72 | 3.81 | 89 | 1010.2 |
| 20260508021051 | 14 | 234 | 0.0 | 0.0 | 0.00 | 4.72 | 3.81 | 89 | 1010.0 |
| 20260508020550 | 14 | 234 | 0.0 | 0.0 | 0.00 | 4.72 | 3.81 | 89 | 1010.0 |
| 20260508015549 | 15 | 234 | 0.0 | 0.0 | 0.00 | 5.03 | 3.81 | 89 | 1009.8 |
| 20260508015049 | 15 | 234 | 0.0 | 0.0 | 0.00 | 5.03 | 3.81 | 89 | 1009.7 |
| 20260508014549 | 15 | 234 | 0.0 | 0.0 | 0.00 | 5.03 | 3.81 | 89 | 1009.7 |
| 20260508014050 | 15 | 234 | 0.0 | 0.0 | 0.00 | 5.03 | 3.81 | 89 | 1009.4 |
| 20260508013549 | 15 | 234 | 0.0 | 0.0 | 0.00 | 5.03 | 3.81 | 89 | 1009.3 |
| 20260508013048 | 15 | 234 | 0.0 | 0.0 | 0.00 | 5.03 | 3.81 | 89 | 1009.3 |
| 20260508012548 | 15 | 234 | 0.0 | 0.0 | 0.00 | 5.03 | 3.81 | 89 | 1009.3 |
| 20260508012048 | 15 | 234 | 0.0 | 0.0 | 0.00 | 5.03 | 3.81 | 89 | 1009.2 |
| 20260508011550 | 15 | 234 | 0.0 | 0.0 | 0.00 | 5.03 | 3.81 | 89 | 1009.0 |
| 20260508011046 | 15 | 234 | 0.0 | 0.0 | 0.00 | 5.03 | 3.81 | 89 | 1008.9 |
| 20260508010546 | 15 | 234 | 0.0 | 0.0 | 0.00 | 5.03 | 3.81 | 89 | 1009.1 |
| 20260508010058 | 15 | 234 | 0.0 | 0.0 | 0.00 | 5.03 | 3.81 | 89 | 1009.2 |
| 20260508005545 | 15 | 234 | 0.0 | 0.0 | 0.00 | 5.38 | 3.81 | 89 | 1009.0 |
| 20260508005045 | 15 | 234 | 0.0 | 0.0 | 0.03 | 5.38 | 3.81 | 88 | 1008.8 |
| 20260508004544 | 15 | 234 | 0.0 | 0.0 | 0.03 | 5.38 | 3.81 | 88 | 1008.6 |
| 20260508004043 | 15 | 234 | 0.0 | 0.0 | 0.05 | 5.38 | 3.81 | 88 | 1008.4 |
| 20260508003543 | 15 | 234 | 0.0 | 0.0 | 0.08 | 5.38 | 3.81 | 88 | 1008.3 |
| 20260508003044 | 15 | 234 | 0.0 | 0.0 | 0.13 | 5.38 | 3.81 | 87 | 1008.3 |
| 20260508002543 | 15 | 234 | 0.0 | 0.0 | 0.20 | 5.38 | 3.81 | 88 | 1008.3 |
| 20260508002042 | 15 | 234 | 0.0 | 0.0 | 0.30 | 5.38 | 3.81 | 87 | 1008.2 |
| 20260508001544 | 15 | 234 | 0.0 | 0.0 | 0.36 | 5.38 | 3.81 | 87 | 1007.9 |
| 20260508001040 | 16 | 234 | 0.0 | 0.0 | 0.36 | 5.38 | 3.81 | 87 | 1007.8 |
| 20260508000540 | 16 | 225 | 0.0 | 0.0 | 0.36 | 5.38 | 3.81 | 86 | 1007.7 |
| 20260508000045 | 16 | 225 | 0.0 | 0.0 | 0.36 | 5.38 | 3.81 | 86 | 1007.6 |
| 20260507235538 | 16 | 221 | 0.0 | 0.0 | 0.36 | 5.38 | 3.81 | 85 | 1007.0 |
| 20260507235037 | 16 | 254 | 0.0 | 0.0 | 0.33 | 5.36 | 3.78 | 85 | 1006.8 |
| 20260507234536 | 16 | 254 | 0.0 | 0.0 | 0.33 | 5.36 | 3.78 | 84 | 1006.5 |
| 20260507234034 | 17 | 252 | 0.0 | 0.0 | 0.30 | 5.33 | 3.76 | 83 | 1006.8 |
| 20260507233534 | 17 | 251 | 0.0 | 0.0 | 0.28 | 5.31 | 3.73 | 82 | 1006.5 |
| 20260507233039 | 17 | 238 | 0.0 | 0.0 | 0.23 | 5.23 | 3.68 | 82 | 1006.4 |
| 20260507232532 | 17 | 244 | 0.0 | 0.0 | 0.13 | 5.13 | 3.58 | 81 | 1006.6 |
| 20260507232032 | 18 | 206 | 0.0 | 0.0 | 0.03 | 5.05 | 3.48 | 80 | 1006.6 |
| 20260507231532 | 18 | 248 | 0.0 | 0.0 | 0.00 | 5.03 | 3.45 | 77 | 1006.6 |
| 20260507231032 | 18 | 234 | 0.0 | 0.0 | 0.00 | 5.03 | 3.45 | 76 | 1006.2 |
| 20260507230532 | 19 | 250 | 0.0 | 0.0 | 0.00 | 5.03 | 3.45 | 75 | 1005.8 |
| 20260507230047 | 19 | 259 | 0.0 | 0.0 | 0.00 | 5.03 | 3.45 | 74 | 1005.8 |
| 20260507225531 | 20 | 242 | 0.0 | 0.0 | 0.00 | 5.03 | 3.45 | 73 | 1006.1 |
| 20260507225031 | 20 | 228 | 0.0 | 0.0 | 0.00 | 5.03 | 3.45 | 72 | 1006.0 |
| 20260507224533 | 21 | 247 | 0.0 | 0.0 | 0.00 | 5.03 | 3.45 | 71 | 1005.6 |
| 20260507224031 | 21 | 136 | 0.0 | 0.0 | 0.00 | 5.03 | 3.45 | 70 | 1005.5 |
| 20260507223532 | 22 | 231 | 0.0 | 0.0 | 0.00 | 5.03 | 3.45 | 69 | 1005.2 |
| 20260507223104 | 22 | 209 | 0.0 | 3.2 | 0.00 | 5.03 | 3.45 | 68 | 1005.1 |
| 20260507222530 | 23 | 224 | 0.0 | 3.2 | 0.00 | 5.03 | 3.45 | 69 | 1004.8 |
| 20260507222029 | 23 | 259 | 0.0 | 4.8 | 0.00 | 5.03 | 3.45 | 71 | 1004.5 |
| 20260507221531 | 24 | 225 | 0.0 | 0.0 | 0.00 | 5.03 | 3.45 | 74 | 1004.7 |
| 20260507221028 | 24 | 269 | 0.0 | 0.0 | 0.00 | 5.03 | 3.45 | 73 | 1004.1 |
| 20260507220529 | 24 | 269 | 0.0 | 0.0 | 0.00 | 5.03 | 3.45 | 73 | 1003.9 |
| 20260507220028 | 24 | 269 | 0.0 | 0.0 | 0.00 | 5.03 | 3.45 | 73 | 1003.9 |
| 20260507215528 | 24 | 168 | 0.0 | 0.0 | 0.00 | 5.03 | 3.45 | 72 | 1004.0 |
| 20260507215027 | 24 | 210 | 0.0 | 0.0 | 0.00 | 5.03 | 3.45 | 72 | 1003.7 |
| 20260507214528 | 24 | 184 | 0.0 | 0.0 | 0.00 | 5.03 | 3.45 | 73 | 1003.8 |
| 20260507214028 | 24 | 178 | 0.0 | 0.0 | 0.00 | 5.03 | 3.45 | 73 | 1003.7 |
| 20260507213529 | 24 | 148 | 0.0 | 0.0 | 0.00 | 5.03 | 3.45 | 73 | 1003.6 |
| 20260507213028 | 24 | 154 | 0.0 | 0.0 | 0.00 | 5.03 | 3.45 | 73 | 1003.5 |
| 20260507212527 | 24 | 154 | 0.0 | 0.0 | 0.00 | 5.03 | 3.45 | 72 | 1003.5 |
| 20260507212026 | 24 | 154 | 0.0 | 0.0 | 0.00 | 5.03 | 3.45 | 72 | 1003.6 |
| 20260507211527 | 24 | 153 | 0.0 | 0.0 | 0.00 | 5.03 | 3.45 | 71 | 1003.7 |
| 20260507211025 | 25 | 238 | 0.0 | 0.0 | 0.00 | 5.03 | 3.45 | 71 | 1003.6 |
| 20260507210525 | 25 | 188 | 0.0 | 0.0 | 0.00 | 5.03 | 3.45 | 72 | 1003.7 |
| 20260507210035 | 25 | 188 | 0.0 | 0.0 | 0.00 | 5.03 | 3.45 | 71 | 1003.7 |
| 20260507205531 | 25 | 186 | 0.0 | 0.0 | 0.00 | 5.03 | 3.45 | 71 | 1003.9 |
| 20260507205028 | 25 | 115 | 0.0 | 0.0 | 0.00 | 5.03 | 3.45 | 71 | 1003.7 |
| 20260507204532 | 25 | 115 | 0.0 | 0.0 | 0.00 | 5.03 | 3.45 | 70 | 1003.7 |
| 20260507204024 | 25 | 266 | 0.0 | 0.0 | 0.00 | 5.03 | 3.45 | 71 | 1003.8 |
| 20260507203526 | 25 | 139 | 0.0 | 0.0 | 0.00 | 5.03 | 3.45 | 70 | 1003.8 |
| 20260507203032 | 25 | 250 | 0.0 | 0.0 | 0.00 | 5.03 | 3.45 | 73 | 1003.9 |
| 20260507202520 | 24 | 250 | 0.0 | 0.0 | 0.00 | 5.03 | 3.45 | 72 | 1004.0 |
| 20260507202023 | 24 | 248 | 0.0 | 0.0 | 0.00 | 5.03 | 3.45 | 75 | 1003.9 |
| 20260507201518 | 23 | 248 | 0.0 | 0.0 | 0.00 | 5.03 | 3.45 | 79 | 1003.9 |
| 20260507201020 | 23 | 248 | 0.0 | 0.0 | 0.00 | 5.03 | 3.45 | 80 | 1004.0 |
| 20260507200513 | 23 | 247 | 0.0 | 0.0 | 0.00 | 5.03 | 3.45 | 81 | 1004.0 |
| 20260507200024 | 23 | 247 | 0.0 | 0.0 | 0.00 | 5.03 | 3.45 | 86 | 1004.0 |
| 20260507195511 | 22 | 232 | 0.0 | 0.0 | 0.00 | 5.03 | 3.45 | 88 | 1004.2 |
| 20260507195011 | 22 | 186 | 0.0 | 0.0 | 0.00 | 5.03 | 3.45 | 89 | 1004.2 |
| 20260507194509 | 22 | 186 | 0.0 | 0.0 | 0.00 | 5.03 | 3.45 | 89 | 1004.4 |
| 20260507194007 | 22 | 251 | 0.0 | 0.0 | 0.00 | 5.03 | 3.45 | 89 | 1004.5 |
| 20260507193506 | 22 | 247 | 0.0 | 0.0 | 0.00 | 5.03 | 3.45 | 91 | 1004.9 |
| 20260507193018 | 22 | 247 | 0.0 | 0.0 | 0.00 | 5.03 | 3.45 | 92 | 1004.8 |
| 20260507192506 | 22 | 171 | 0.0 | 0.0 | 0.00 | 5.03 | 3.45 | 93 | 1004.8 |
| 20260507192003 | 21 | 171 | 0.0 | 0.0 | 0.00 | 5.03 | 3.45 | 92 | 1004.9 |
| 20260507191502 | 21 | 171 | 0.0 | 0.0 | 0.00 | 5.03 | 3.45 | 93 | 1004.9 |
| 20260507191101 | 21 | 253 | 0.0 | 0.0 | 0.00 | 5.03 | 3.45 | 93 | 1005.0 |
| 20260507190559 | 21 | 253 | 0.0 | 0.0 | 0.00 | 5.03 | 3.45 | 93 | 1005.1 |
| 20260507190059 | 21 | 253 | 0.0 | 0.0 | 0.00 | 5.03 | 3.45 | 93 | 1005.1 |
| 20260507185557 | 21 | 255 | 0.0 | 0.0 | 0.00 | 5.18 | 3.45 | 93 | 1005.1 |
| 20260507185057 | 21 | 248 | 0.0 | 0.0 | 0.00 | 5.18 | 3.45 | 94 | 1005.0 |
| 20260507184556 | 21 | 248 | 0.0 | 0.0 | 0.00 | 5.18 | 3.45 | 93 | 1005.0 |
| 20260507184055 | 21 | 210 | 0.0 | 0.0 | 0.00 | 5.18 | 3.45 | 94 | 1005.0 |
| 20260507183556 | 21 | 210 | 0.0 | 0.0 | 0.00 | 5.18 | 3.45 | 93 | 1005.1 |
| 20260507183056 | 20 | 236 | 0.0 | 0.0 | 0.00 | 5.18 | 3.45 | 93 | 1005.0 |
| 20260507182554 | 20 | 236 | 0.0 | 1.6 | 0.00 | 5.18 | 3.45 | 93 | 1005.0 |
| 20260507182054 | 20 | 166 | 0.0 | 1.6 | 0.00 | 5.18 | 3.45 | 93 | 1005.0 |
| 20260507181558 | 20 | 197 | 0.0 | 0.0 | 0.00 | 5.18 | 3.45 | 94 | 1004.8 |
| 20260507181053 | 20 | 197 | 0.0 | 0.0 | 0.00 | 5.18 | 3.45 | 93 | 1004.9 |
| 20260507180551 | 20 | 178 | 0.0 | 0.0 | 0.00 | 5.18 | 3.45 | 93 | 1005.0 |
| 20260507180051 | 20 | 178 | 0.0 | 0.0 | 0.00 | 5.18 | 3.45 | 93 | 1005.3 |
| 20260507175550 | 20 | 178 | 0.0 | 0.0 | 0.00 | 5.18 | 3.45 | 93 | 1005.2 |
| 20260507175050 | 20 | 209 | 0.0 | 0.0 | 0.00 | 5.18 | 3.45 | 93 | 1005.4 |
| 20260507174556 | 20 | 209 | 0.0 | 0.0 | 0.00 | 5.18 | 3.45 | 93 | 1005.4 |
| 20260507174048 | 20 | 209 | 0.0 | 0.0 | 0.00 | 5.18 | 3.45 | 93 | 1005.6 |
| 20260507173548 | 20 | 209 | 0.0 | 0.0 | 0.00 | 5.18 | 3.45 | 93 | 1005.7 |
| 20260507173054 | 20 | 209 | 0.0 | 0.0 | 0.00 | 5.18 | 3.45 | 93 | 1005.7 |
| 20260507172553 | 20 | 209 | 0.0 | 0.0 | 0.00 | 5.18 | 3.45 | 93 | 1005.7 |
| 20260507172049 | 20 | 208 | 0.0 | 0.0 | 0.00 | 5.18 | 3.45 | 93 | 1005.3 |
| 20260507171559 | 20 | 208 | 0.0 | 0.0 | 0.00 | 5.18 | 3.45 | 93 | 1005.6 |
| 20260507171047 | 20 | 208 | 0.0 | 0.0 | 0.00 | 5.18 | 3.45 | 93 | 1005.7 |
| 20260507170549 | 20 | 208 | 0.0 | 0.0 | 0.00 | 5.18 | 3.45 | 93 | 1005.8 |
| 20260507170050 | 19 | 190 | 0.0 | 0.0 | 0.00 | 5.18 | 3.45 | 93 | 1005.8 |
| 20260507165546 | 19 | 168 | 0.0 | 0.0 | 0.00 | 5.18 | 3.45 | 93 | 1005.6 |
| 20260507165045 | 19 | 168 | 0.0 | 0.0 | 0.00 | 5.18 | 3.45 | 93 | 1005.7 |
| 20260507164546 | 19 | 168 | 0.0 | 0.0 | 0.00 | 5.18 | 3.45 | 93 | 1005.7 |
| 20260507164046 | 19 | 168 | 0.0 | 0.0 | 0.00 | 5.18 | 3.45 | 93 | 1006.0 |
| 20260507163544 | 19 | 168 | 0.0 | 0.0 | 0.00 | 5.18 | 3.45 | 93 | 1006.2 |
| 20260507163045 | 19 | 168 | 0.0 | 0.0 | 0.00 | 5.18 | 3.45 | 93 | 1006.5 |
| 20260507162545 | 19 | 168 | 0.0 | 0.0 | 0.00 | 5.18 | 3.45 | 93 | 1006.6 |
| 20260507162047 | 19 | 168 | 0.0 | 0.0 | 0.00 | 5.18 | 3.45 | 93 | 1006.5 |
| 20260507161552 | 19 | 168 | 0.0 | 0.0 | 0.00 | 5.18 | 3.45 | 93 | 1006.3 |
| 20260507161043 | 19 | 168 | 0.0 | 0.0 | 0.00 | 5.18 | 3.45 | 93 | 1006.1 |
| 20260507160543 | 19 | 168 | 0.0 | 0.0 | 0.00 | 5.18 | 3.45 | 93 | 1006.2 |
| 20260507160044 | 19 | 168 | 0.0 | 0.0 | 0.00 | 5.18 | 3.45 | 93 | 1006.1 |
| 20260507155542 | 19 | 168 | 0.0 | 0.0 | 0.00 | 5.18 | 3.45 | 93 | 1005.8 |
| 20260507155042 | 19 | 162 | 0.0 | 0.0 | 0.00 | 5.18 | 3.45 | 93 | 1005.5 |
| 20260507154544 | 18 | 162 | 0.0 | 0.0 | 0.00 | 5.18 | 3.45 | 93 | 1005.2 |
| 20260507154042 | 18 | 162 | 0.0 | 0.0 | 0.03 | 5.18 | 3.45 | 93 | 1005.1 |
| 20260507153540 | 18 | 162 | 0.0 | 0.0 | 0.03 | 5.18 | 3.45 | 93 | 1004.9 |
| 20260507153043 | 18 | 162 | 0.0 | 0.0 | 0.03 | 5.18 | 3.45 | 93 | 1004.9 |
| 20260507152539 | 18 | 162 | 0.0 | 0.0 | 0.03 | 5.18 | 3.45 | 93 | 1005.1 |
| 20260507152039 | 18 | 162 | 0.0 | 0.0 | 0.03 | 5.18 | 3.45 | 93 | 1005.2 |
| 20260507151539 | 18 | 162 | 0.0 | 0.0 | 0.03 | 5.18 | 3.45 | 93 | 1005.2 |
| 20260507151037 | 18 | 162 | 0.0 | 0.0 | 0.05 | 5.18 | 3.45 | 93 | 1005.4 |
| 20260507150537 | 18 | 162 | 0.0 | 0.0 | 0.08 | 5.18 | 3.45 | 93 | 1005.6 |
| 20260507150040 | 18 | 175 | 0.0 | 0.0 | 0.08 | 5.18 | 3.45 | 93 | 1006.1 |